Simultaneous Nadir Overpasses (SNOs) Predictions

Prediction of SNOs between FY3D and NOAA-19 Satellite Orbit:

Table of predicted SNOs for the next 14.0 days since TLE Epoch: 1/29/2022
Index Date (FY3D) Time (FY3D) Lat,Lon (FY3D) SZA (FY3D ) Date (NOAA-19) Time (NOAA-19) Lat,Lon (NOAA-19) SZA (NOAA-19 ) Distance(km) Time Diff (sec)
1 02/01/2022 08:01:20 -77.59,-138.55 84.58 02/01/2022 08:00:12 -77.60,-141.18 84.33 62.83 68
2 02/01/2022 08:52:12 77.84, 27.52 95.75 02/01/2022 08:51:10 77.85, 27.39 95.78 3.06 62
3 02/01/2022 09:42:58 -77.86,-165.25 84.25 02/01/2022 09:42:05 -77.88,-165.19 84.22 2.27 53
4 02/01/2022 10:33:44 77.87, 2.03 95.76 02/01/2022 10:33:10 77.85, 1.92 95.77 2.89 34
5 02/01/2022 11:24:30 -77.88, 169.26 84.24 02/01/2022 11:24:05 -77.88, 169.33 84.24 1.66 25
6 02/01/2022 12:15:16 77.89, -23.46 95.76 02/01/2022 12:15:09 77.90, -23.34 95.77 2.99 7
7 02/01/2022 13:06:02 -77.90, 143.77 84.23 02/01/2022 13:06:05 -77.88, 143.86 84.25 2.78 3
8 02/01/2022 13:56:48 77.91, -48.94 95.77 02/01/2022 13:57:09 77.90, -48.81 95.75 3.17 21
9 02/01/2022 14:47:33 -77.88, 118.49 84.28 02/01/2022 14:48:05 -77.89, 118.38 84.27 2.60 32
10 02/01/2022 15:38:19 77.89, -74.23 95.73 02/01/2022 15:39:09 77.91, -74.29 95.73 2.42 50
11 02/01/2022 16:29:05 -77.90, 93.00 84.27 02/01/2022 16:30:05 -77.89, 92.91 84.29 2.50 60
12 02/01/2022 17:19:55 78.07,-100.56 95.95 02/01/2022 17:21:06 78.02, -99.11 95.77 33.87 71



Historial Predications of SNOs between FY3D and NOAA-19
